Regional Weather Roundup
Issued by NWS

Home | Current Version | Previous Version | Text Only | Print | Product List | Glossary Off
Versions: 1 2 3 4 5 6 7 8 9 10 11 12 13 14 15 16 17 18 19 20 21 22 23 24 25 26 27 28 29 30 31 32 33 34 35 36 37 38 39 40 41 42 43 44 45 46 47 48 49 50

000
ASUS44 KMEG 202300
RWRTN
TENNESSEE HOURLY STATE WEATHER ROUNDUP
NATIONAL WEATHER SERVICE MEMPHIS TN
600 PM CDT SUN APR 20 2014

TNZ002-004-019-021-049-052-054-088>092-210000-
WEST TENNESSEE

CITY           SKY/WX    TMP DP  RH WIND       PRES   REMARKS
MEMPHIS INTL   MOSUNNY   78  48  34 S5        30.10S
NWS MEMPHIS      N/A     81 N/A N/A MISG        N/A
JACKSON        SUNNY     78  44  29 CALM      30.10F
DYERSBURG      SUNNY     79  45  29 SE9       30.11S
UNION CITY     SUNNY     77  45  31 CALM      30.10F
LEXINGTON      SUNNY     79  41  25 SW3       30.10F
$$

TNZ008-025-027-028-033-062-065-066-210000-
NORTH MIDDLE TENNESSEE

CITY           SKY/WX    TMP DP  RH WIND       PRES   REMARKS
NASHVILLE      PTSUNNY   77  40  26 E7        30.11F
CLARKSVILLE    PTSUNNY   74  52  46 NE6       30.10F
COOKEVILLE     SUNNY     79  45  29 CALM      30.12F
CROSSVILLE     SUNNY     74  33  22 CALM      30.15F
$$

TNZ061-075-076-078-094-096-097-210000-
SOUTH MIDDLE TENNESSEE

CITY           SKY/WX    TMP DP  RH WIND       PRES   REMARKS
TULLAHOMA      SUNNY     73  45  35 NW6       30.14S
WINCHESTER     SUNNY     75  46  35 NW3       30.12F
MCMINNVILLE    SUNNY     75  43  31 CALM      30.12F
COLUMBIA       SUNNY     79  52  38 CALM      30.10F
$$

TNZ017-018-042-046-047-210000-
NORTHEAST TENNESSEE

CITY           SKY/WX    TMP DP  RH WIND       PRES   REMARKS
TRI CITIES     MOSUNNY   74  28  18 N3        30.15F
ELIZABETHTON   CLEAR     72  30  21 CALM      30.15R
$$

TNZ012-013-036-069-073-074-210000-
CENTRAL EAST TENNESSEE

CITY           SKY/WX    TMP DP  RH WIND       PRES   REMARKS
KNOXVILLE      MOSUNNY   74  38  27 NE6       30.12S
OAK RIDGE      MOSUNNY   77  39  25 VRB5      30.13S
$$

TNZ083-085-099-210000-
SOUTHEAST TENNESSEE

CITY           SKY/WX    TMP DP  RH WIND       PRES   REMARKS
CHATTANOOGA    PTSUNNY   78  38  23 NE7       30.11F
$$

SKY/WX REPORTED AS FAIR MEANS FEW OR NO CLOUDS BELOW
12 THOUSAND FEET.




USA.gov is the U.S. government's official web portal to all federal, state and local government web resources and services.